Location: La Tine
(46.4708°N, 7.0525°E)
Time: 17:25:20
(UTC+00:00)

Ariane Rocket - Pass Details

Date: 18 September 2020
Orbit: 760 x 770 km, 98.7° (Epoch: 29 October)

Event Time Altitude Azimuth Distance (km) Brightness Sun altitude
Exits shadow 19:49:57 11° 192° (SSW) 2,195 5.2 -22.8°
Maximum altitude 19:54:27 41° 262° (W) 1,093 4.1 -23.5°
Drops below altitude 10° 19:59:16 10° 332° (NNW) 2,313 6.2 -24.2°
Sets 20:01:43 0° 340° (NNW) 3,246 7.0 -24.5°
